GW6613 Weather Reports


Display with metric or nautical units.
time (UTC)temp
F
wind
direction
speed
MPH
gust
MPH
rain 1hr
in
rain 24hr
in
rain mn
in
humidity
%
barometer
mb
20260504044530 45 352 0.0 0.0 0.00 0.00 0.00 52 1011.2
20260504044514 54 159 0.0 4.0 0.00 0.00 0.00 55 1012.3
20260504044010 54 138 1.0 4.0 0.00 0.00 0.00 55 1012.4
20260504043530 45 355 0.0 0.0 0.00 0.00 0.00 54 1011.1
20260504043507 54 165 1.0 4.0 0.00 0.00 0.00 55 1012.4
20260504043030 45 355 0.0 0.0 0.00 0.00 0.00 54 1011.1
20260504043020 54 314 0.0 3.0 0.00 0.00 0.00 55 1012.5
20260504042529 45 355 0.0 0.0 0.00 0.00 0.00 53 1010.9
20260504042508 54 146 0.0 6.0 0.00 0.00 0.00 55 1012.5
20260504042028 45 355 0.0 0.0 0.00 0.00 0.00 52 1011.0
20260504042010 55 143 0.0 6.0 0.00 0.00 0.00 54 1012.5
20260504041527 45 355 0.0 0.0 0.00 0.00 0.00 51 1010.8
20260504041522 54 127 1.0 5.0 0.00 0.00 0.00 53 1012.5
20260504041027 45 355 0.0 0.0 0.00 0.00 0.00 50 1010.8
20260504041004 54 117 0.0 5.0 0.00 0.00 0.00 53 1012.5
20260504040525 45 355 0.0 0.0 0.00 0.00 0.00 51 1010.7
20260504040502 54 149 2.0 4.0 0.00 0.00 0.00 54 1012.5
20260504040027 45 355 0.0 0.0 0.00 0.00 0.00 50 1010.7
20260504040022 54 145 1.0 3.0 0.00 0.00 0.00 54 1012.6
20260504035529 46 355 0.0 0.0 0.00 0.00 0.00 49 1010.7
20260504035506 54 136 1.0 5.0 0.00 0.00 0.00 54 1012.8
20260504035025 46 355 0.0 0.0 0.00 0.00 0.00 49 1010.9
20260504035008 55 151 1.0 5.0 0.00 0.00 0.00 53 1012.9
20260504034532 46 355 0.0 0.0 0.00 0.00 0.00 48 1010.8
20260504034511 55 160 0.0 4.0 0.00 0.00 0.00 54 1012.9
20260504034006 55 149 1.0 5.0 0.00 0.00 0.00 53 1012.9
20260504033523 46 355 0.0 0.0 0.00 0.00 0.00 47 1010.8
20260504033506 55 146 1.0 5.0 0.00 0.00 0.00 53 1013.0
20260504033036 46 355 0.0 0.0 0.00 0.00 0.00 46 1010.8
20260504033019 55 144 0.0 3.0 0.00 0.00 0.00 54 1013.0
20260504032523 46 355 0.0 0.0 0.00 0.00 0.00 48 1010.7
20260504032508 55 139 1.0 5.0 0.00 0.00 0.00 54 1013.0
20260504032023 46 354 0.0 0.0 0.00 0.00 0.00 46 1010.8
20260504032003 55 139 1.0 5.0 0.00 0.00 0.00 54 1013.0
20260504031529 47 354 0.0 0.0 0.00 0.00 0.00 48 1010.8
20260504031504 54 129 0.0 2.0 0.00 0.00 0.00 54 1013.0
20260504031022 47 354 0.0 0.0 0.00 0.00 0.00 47 1010.8
20260504031004 55 149 0.0 2.0 0.00 0.00 0.00 55 1013.0
20260504030523 47 354 0.0 0.0 0.00 0.00 0.00 47 1010.7
20260504030503 55 122 0.0 3.0 0.00 0.00 0.00 55 1013.0
20260504030022 47 354 0.0 0.0 0.00 0.00 0.00 46 1010.7
20260504030008 55 155 0.0 3.0 0.00 0.00 0.00 58 1013.1
20260504025522 47 354 0.0 0.0 0.00 0.00 0.00 45 1010.7
20260504025504 54 146 0.0 3.0 0.00 0.00 0.00 56 1013.0
20260504025022 47 354 0.0 0.0 0.00 0.00 0.00 47 1010.7
20260504025006 55 148 1.0 3.0 0.00 0.00 0.00 58 1013.1
20260504024539 47 354 0.0 0.0 0.00 0.00 0.00 45 1010.7
20260504024509 55 145 0.0 3.0 0.00 0.00 0.00 55 1013.1
20260504024004 55 131 0.0 3.0 0.00 0.00 0.00 56 1013.1
20260504023524 47 354 0.0 0.0 0.00 0.00 0.00 46 1010.7
20260504023506 55 145 1.0 3.0 0.00 0.00 0.00 56 1013.1
20260504023024 48 354 0.0 0.0 0.00 0.00 0.00 44 1010.8
20260504023014 55 136 0.0 3.0 0.00 0.00 0.00 58 1013.1
20260504022524 48 354 0.0 0.0 0.00 0.00 0.00 46 1010.7
20260504022504 55 138 0.0 3.0 0.00 0.00 0.00 58 1013.2
20260504022023 48 354 0.0 0.0 0.00 0.00 0.00 44 1010.7
20260504022004 55 134 0.0 2.0 0.00 0.00 0.00 57 1013.1
20260504021523 48 354 0.0 0.0 0.00 0.00 0.00 44 1010.7
20260504021520 55 338 0.0 2.0 0.00 0.00 0.00 58 1013.0
20260504021023 48 354 0.0 0.0 0.00 0.00 0.00 44 1010.8
20260504021006 55 124 0.0 2.0 0.00 0.00 0.00 56 1012.9
20260504020523 48 354 0.0 0.0 0.00 0.00 0.00 46 1010.8
20260504020503 55 141 1.0 2.0 0.00 0.00 0.00 56 1012.9
20260504020023 48 354 0.0 0.0 0.00 0.00 0.00 45 1010.8
20260504020004 55 108 0.0 2.0 0.00 0.00 0.00 58 1012.8
20260504015523 49 354 0.0 0.0 0.00 0.00 0.00 47 1010.7
20260504015503 55 139 0.0 2.0 0.00 0.00 0.00 56 1012.9
20260504015022 49 354 0.0 0.0 0.00 0.00 0.00 45 1010.7
20260504015003 55 22 1.0 2.0 0.00 0.00 0.00 58 1012.9
20260504014522 49 354 0.0 0.0 0.00 0.00 0.00 43 1010.7
20260504014518 54 151 0.0 2.0 0.00 0.00 0.00 58 1012.9
20260504014002 54 130 0.0 3.0 0.00 0.00 0.00 57 1012.8
20260504013520 49 354 0.0 0.0 0.00 0.00 0.00 43 1010.6
20260504013505 54 141 0.0 3.0 0.00 0.00 0.00 57 1012.9
20260504013019 49 354 0.0 0.0 0.00 0.00 0.00 42 1010.5
20260504013010 55 136 0.0 2.0 0.00 0.00 0.00 60 1012.9
20260504012619 50 354 0.0 0.0 0.00 0.00 0.00 42 1010.5
20260504012509 55 136 0.0 2.0 0.00 0.00 0.00 57 1012.7
20260504012020 50 360 0.0 0.0 0.00 0.00 0.00 41 1010.4
20260504012008 55 139 1.0 4.0 0.00 0.00 0.00 58 1012.6
20260504011519 50 360 0.0 0.0 0.00 0.00 0.00 40 1010.3
20260504011515 55 297 0.0 4.0 0.00 0.00 0.00 57 1012.6
20260504011018 50 360 0.0 0.0 0.00 0.00 0.00 39 1010.3
20260504011010 55 89 2.0 4.0 0.00 0.00 0.00 57 1012.7
20260504010519 51 355 0.0 0.0 0.00 0.00 0.00 40 1010.3
20260504010507 55 149 2.0 3.0 0.00 0.00 0.00 56 1012.7
20260504010021 56 146 1.0 4.0 0.00 0.00 0.00 56 1013.0
20260504010018 51 355 0.0 0.0 0.00 0.00 0.00 40 1010.2
20260504005519 51 355 0.0 0.0 0.00 0.00 0.00 40 1010.2
20260504005505 57 131 1.0 4.0 0.00 0.00 0.00 53 1013.1
20260504005019 52 355 0.0 0.0 0.00 0.00 0.00 38 1010.1
20260504005002 57 138 1.0 4.0 0.00 0.00 0.00 50 1013.2
20260504004534 52 355 0.0 0.0 0.00 0.00 0.00 37 1010.0
20260504004504 57 132 0.0 4.0 0.00 0.00 0.00 48 1013.1
20260504004002 58 135 0.0 5.0 0.00 0.00 0.00 48 1013.0
20260504003518 53 355 0.0 0.0 0.00 0.00 0.00 35 1010.0
20260504003503 58 117 2.0 6.0 0.00 0.00 0.00 46 1013.0
20260504003018 53 355 0.0 0.0 0.00 0.00 0.00 35 1009.9
20260504003009 58 133 1.0 6.0 0.00 0.00 0.00 46 1013.0
20260504002518 54 355 0.0 0.0 0.00 0.00 0.00 33 1009.8
20260504002503 59 68 0.0 4.0 0.00 0.00 0.00 42 1012.9
20260504002018 54 355 0.0 0.0 0.00 0.00 0.00 32 1009.8
20260504002006 59 86 2.0 8.0 0.00 0.00 0.00 41 1013.0
20260504001517 55 355 0.0 0.0 0.00 0.00 0.00 29 1009.7
20260504001513 59 143 1.0 8.0 0.00 0.00 0.00 41 1013.0
20260504001022 55 355 0.0 0.0 0.00 0.00 0.00 28 1009.6
20260504001007 59 139 4.0 9.0 0.00 0.00 0.00 40 1012.8
20260504000521 55 355 0.0 0.0 0.00 0.00 0.00 28 1009.5
20260504000507 59 162 2.0 9.0 0.00 0.00 0.00 43 1012.7
20260504000018 55 360 0.0 0.0 0.00 0.00 0.00 26 1009.5
20260504000016 59 134 1.0 4.0 0.00 0.00 0.00 40 1012.6
20260503235516 56 360 0.0 0.0 0.00 0.00 0.00 25 1009.4
20260503235508 59 145 1.0 4.0 0.00 0.00 0.00 38 1012.6
20260503235017 56 355 0.0 1.0 0.00 0.00 0.00 25 1009.3
20260503235008 59 142 1.0 7.0 0.00 0.00 0.00 38 1012.7
20260503234523 59 127 2.0 7.0 0.00 0.00 0.00 38 1012.7
20260503234517 56 355 0.0 1.0 0.00 0.00 0.00 26 1009.2
20260503234017 56 355 0.0 0.0 0.00 0.00 0.00 26 1009.1
20260503234006 60 131 1.0 6.0 0.00 0.00 0.00 38 1012.7
20260503233516 57 355 0.0 1.0 0.00 0.00 0.00 26 1009.0
20260503233505 60 137 1.0 6.0 0.00 0.00 0.00 39 1012.6
20260503233017 57 355 0.0 1.0 0.00 0.00 0.00 26 1009.0
20260503233003 60 120 1.0 6.0 0.00 0.00 0.00 38 1012.5
20260503232515 57 354 0.0 2.0 0.00 0.00 0.00 26 1008.9
20260503232503 60 138 0.0 7.0 0.00 0.00 0.00 40 1012.7
20260503232016 57 353 0.0 3.0 0.00 0.00 0.00 26 1009.0
20260503232005 60 17 1.0 7.0 0.00 0.00 0.00 37 1012.9
20260503231516 57 293 0.0 3.0 0.00 0.00 0.00 23 1008.9
20260503231509 60 311 1.0 7.0 0.00 0.00 0.00 40 1013.1
20260503231003 60 134 2.0 6.0 0.00 0.00 0.00 38 1013.1
20260503230516 58 240 0.0 2.0 0.00 0.00 0.00 24 1008.8
20260503230508 60 137 2.0 7.0 0.00 0.00 0.00 38 1013.2
20260503230016 58 285 0.0 3.0 0.00 0.00 0.00 23 1008.8
20260503225515 58 285 1.0 3.0 0.00 0.00 0.00 22 1008.8
20260503225506 60 91 3.0 6.0 0.00 0.00 0.00 37 1013.4
20260503225014 58 129 0.0 4.0 0.00 0.00 0.00 25 1008.7
20260503225012 60 198 1.0 8.0 0.00 0.00 0.00 38 1013.5
20260503224518 60 85 2.0 8.0 0.00 0.00 0.00 37 1013.7
20260503224514 58 128 1.0 4.0 0.00 0.00 0.00 24 1008.7
20260503224014 58 274 0.0 3.0 0.00 0.00 0.00 23 1008.6
20260503224008 60 152 1.0 7.0 0.00 0.00 0.00 37 1013.9
20260503223513 58 274 0.0 3.0 0.00 0.00 0.00 24 1008.6
20260503223509 61 127 3.0 7.0 0.00 0.00 0.00 36 1013.9
20260503223019 61 140 0.0 7.0 0.00 0.00 0.00 40 1013.9
20260503223014 58 289 1.0 4.0 0.00 0.00 0.00 21 1008.6
20260503222514 58 300 0.0 4.0 0.00 0.00 0.00 22 1008.6
20260503222508 61 1 1.0 8.0 0.00 0.00 0.00 37 1013.9
20260503222015 58 359 1.0 7.0 0.00 0.00 0.00 21 1008.7
20260503222003 61 170 2.0 8.0 0.00 0.00 0.00 37 1014.0
20260503221516 58 311 1.0 4.0 0.00 0.00 0.00 21 1008.7
20260503221507 61 152 1.0 6.0 0.00 0.00 0.00 38 1014.1
20260503221006 62 142 2.0 9.0 0.00 0.00 0.00 37 1014.1
20260503220514 58 271 1.0 5.0 0.00 0.00 0.00 23 1008.7
20260503220504 62 100 4.0 9.0 0.00 0.00 0.00 35 1014.3
20260503220016 58 291 1.0 5.0 0.00 0.00 0.00 20 1008.7
20260503220010 62 145 2.0 9.0 0.00 0.00 0.00 37 1014.3
20260503215614 58 179 1.0 4.0 0.00 0.00 0.00 20 1008.7
20260503215504 61 104 3.0 7.0 0.00 0.00 0.00 37 1014.4
20260503215013 58 318 1.0 3.0 0.00 0.00 0.00 20 1008.7
20260503215006 61 137 3.0 7.0 0.00 0.00 0.00 36 1014.4
20260503214512 58 104 1.0 4.0 0.00 0.00 0.00 20 1008.8
20260503214014 58 273 1.0 5.0 0.00 0.00 0.00 19 1008.9
20260503214008 61 147 0.0 6.0 0.00 0.00 0.00 38 1014.4
20260503213514 58 275 1.0 6.0 0.00 0.00 0.00 20 1008.8
20260503213511 61 114 4.0 8.0 0.00 0.00 0.00 36 1014.4
20260503213019 61 147 3.0 11.0 0.00 0.00 0.00 38 1014.4
20260503213017 58 319 1.0 6.0 0.00 0.00 0.00 19 1008.8
20260503212513 58 131 0.0 4.0 0.00 0.00 0.00 20 1008.7
20260503212508 62 127 2.0 11.0 0.00 0.00 0.00 37 1014.4
20260503212014 58 266 1.0 5.0 0.00 0.00 0.00 22 1008.7
20260503212008 62 154 2.0 5.0 0.00 0.00 0.00 36 1014.5
20260503211520 62 126 2.0 5.0 0.00 0.00 0.00 35 1014.6
20260503211511 58 294 1.0 5.0 0.00 0.00 0.00 22 1008.9
20260503211011 62 134 2.0 5.0 0.00 0.00 0.00 37 1014.7
20260503210512 58 125 1.0 5.0 0.00 0.00 0.00 19 1008.6
20260503210504 62 134 1.0 8.0 0.00 0.00 0.00 36 1014.9
20260503210011 58 243 0.0 4.0 0.00 0.00 0.00 23 1008.6
20260503210006 62 127 3.0 9.0 0.00 0.00 0.00 39 1015.0
20260503205517 58 106 1.0 4.0 0.00 0.00 0.00 22 1008.6
20260503205507 62 116 2.0 12.0 0.00 0.00 0.00 37 1015.0
20260503205011 58 247 1.0 4.0 0.00 0.00 0.00 19 1008.6
20260503205007 61 151 4.0 12.0 0.00 0.00 0.00 36 1015.0
20260503204513 62 131 3.0 9.0 0.00 0.00 0.00 35 1015.1
20260503204511 58 266 1.0 5.0 0.00 0.00 0.00 19 1008.6
20260503204010 58 288 2.0 5.0 0.00 0.00 0.00 22 1008.7
20260503203510 57 249 1.0 8.0 0.00 0.00 0.00 21 1008.7
20260503203505 63 169 2.0 10.0 0.00 0.00 0.00 36 1015.0
20260503203016 63 143 2.0 10.0 0.00 0.00 0.00 36 1015.1
20260503203011 58 266 1.0 8.0 0.00 0.00 0.00 21 1008.7
20260503202510 58 321 1.0 4.0 0.00 0.00 0.00 21 1008.7
20260503202009 64 134 3.0 7.0 0.00 0.00 0.00 35 1015.1
20260503201520 64 133 3.0 8.0 0.00 0.00 0.00 37 1015.1
20260503201510 58 283 1.0 5.0 0.00 0.00 0.00 21 1008.9
20260503201008 63 128 3.0 8.0 0.00 0.00 0.00 38 1015.1
20260503200512 58 310 1.0 6.0 0.00 0.00 0.00 24 1008.9
20260503200023 63 297 1.0 6.0 0.00 0.00 0.00 38 1015.2
20260503200009 58 288 1.0 6.0 0.00 0.00 0.00 22 1008.9
20260503195510 62 152 2.0 6.0 0.00 0.00 0.00 35 1015.4
20260503195007 58 275 1.0 5.0 0.00 0.00 0.00 23 1008.9
20260503194508 60 108 3.0 12.0 0.00 0.00 0.00 36 1015.6
20260503194007 61 164 4.0 8.0 0.00 0.00 0.00 36 1015.8
20260503193510 57 54 2.0 8.0 0.00 0.00 0.00 22 1009.1
20260503193507 61 121 2.0 7.0 0.00 0.00 0.00 39 1016.1
20260503193031 62 324 1.0 7.0 0.00 0.00 0.00 35 1016.1
20260503193020 57 276 1.0 7.0 0.00 0.00 0.00 21 1009.2
20260503192508 57 297 2.0 7.0 0.00 0.00 0.00 23 1009.4
20260503192505 62 149 2.0 10.0 0.00 0.00 0.00 36 1016.3
20260503192008 62 57 3.0 10.0 0.00 0.00 0.00 34 1016.4
20260503192005 57 329 2.0 7.0 0.00 0.00 0.00 21 1009.4
20260503191517 63 262 2.0 9.0 0.00 0.00 0.00 35 1016.3
20260503191505 57 240 1.0 6.0 0.00 0.00 0.00 24 1009.3
20260503191012 62 138 3.0 11.0 0.00 0.00 0.00 34 1016.5
20260503190510 62 54 3.0 11.0 0.00 0.00 0.00 33 1016.6
20260503190503 57 266 2.0 6.0 0.00 0.00 0.00 25 1009.4
20260503190024 63 143 4.0 7.0 0.00 0.00 0.00 33 1016.6
20260503190004 57 192 1.0 5.0 0.00 0.00 0.00 25 1009.4
20260503185506 63 356 2.0 10.0 0.00 0.00 0.00 35 1016.6
20260503185503 57 281 1.0 5.0 0.00 0.00 0.00 26 1009.5
20260503185012 62 86 4.0 10.0 0.00 0.00 0.00 33 1016.6
20260503185002 57 265 0.0 4.0 0.00 0.00 0.00 26 1009.3
20260503184525 62 355 2.0 12.0 0.00 0.00 0.00 38 1016.7
20260503184503 57 266 1.0 5.0 0.00 0.00 0.00 24 1009.3
20260503184009 62 143 3.0 12.0 0.00 0.00 0.00 33 1016.8
20260503184003 57 139 1.0 4.0 0.00 0.00 0.00 26 1009.4
20260503183502 57 270 1.0 6.0 0.00 0.00 0.00 24 1009.4
20260503183012 61 108 3.0 9.0 0.00 0.00 0.00 34 1017.0
20260503183002 57 126 2.0 6.0 0.00 0.00 0.00 26 1009.6
20260503182507 61 160 2.0 10.0 0.00 0.00 0.00 38 1017.0
20260503182500 56 269 1.0 4.0 0.00 0.00 0.00 25 1009.6
20260503182100 56 229 1.0 5.0 0.00 0.00 0.00 25 1009.5
20260503182006 61 114 2.0 10.0 0.00 0.00 0.00 36 1017.1
20260503181602 56 240 1.0 10.0 0.00 0.00 0.00 26 1009.5
20260503181512 61 110 4.0 7.0 0.00 0.00 0.00 35 1017.1
20260503181159 55 322 2.0 6.0 0.00 0.00 0.00 25 1009.6
20260503181008 62 143 3.0 8.0 0.00 0.00 0.00 37 1017.2
20260503180557 55 308 1.0 5.0 0.00 0.00 0.00 28 1009.7
20260503180508 61 127 2.0 10.0 0.00 0.00 0.00 37 1017.2
20260503180057 54 226 0.0 4.0 0.00 0.00 0.00 30 1009.8
20260503180021 61 31 4.0 10.0 0.00 0.00 0.00 38 1017.3
20260503175556 54 360 0.0 5.0 0.00 0.00 0.00 30 1009.7
20260503175509 61 329 2.0 13.0 0.00 0.00 0.00 36 1017.3
20260503175055 54 219 1.0 5.0 0.00 0.00 0.00 30 1009.9
20260503175007 61 114 3.0 13.0 0.00 0.00 0.00 38 1017.4
20260503174612 54 298 1.0 6.0 0.00 0.00 0.00 26 1009.9
20260503174529 60 126 3.0 9.0 0.00 0.00 0.00 36 1017.5
20260503174055 54 270 1.0 6.0 0.00 0.00 0.00 33 1010.1
20260503174007 60 314 3.0 8.0 0.00 0.00 0.00 37 1017.5
20260503173555 53 262 0.0 4.0 0.00 0.00 0.00 31 1010.0
20260503173511 60 134 4.0 10.0 0.00 0.00 0.00 37 1017.6
20260503173057 53 226 1.0 7.0 0.00 0.00 0.00 32 1010.2
20260503173027 60 106 3.0 10.0 0.00 0.00 0.00 37 1017.7
20260503172555 53 360 0.0 7.0 0.00 0.00 0.00 34 1010.1
20260503172509 60 120 5.0 10.0 0.00 0.00 0.00 34 1017.9
20260503172055 53 360 2.0 5.0 0.00 0.00 0.00 31 1010.1
20260503172003 60 122 5.0 10.0 0.00 0.00 0.00 35 1018.0
20260503171554 53 284 2.0 5.0 0.00 0.00 0.00 30 1010.0
20260503171521 60 131 3.0 8.0 0.00 0.00 0.00 35 1018.1
20260503171155 53 360 0.0 4.0 0.00 0.00 0.00 32 1010.2
20260503171008 60 143 4.0 8.0 0.00 0.00 0.00 35 1018.2
20260503170555 53 203 1.0 4.0 0.00 0.00 0.00 32 1010.1
20260503170506 59 129 3.0 9.0 0.00 0.00 0.00 35 1018.2
20260503151002 54 154 1.0 8.0 0.00 0.00 0.00 52 1019.5
20260503150550 51 350 1.0 4.0 0.00 0.00 0.00 30 1010.4
20260503150507 54 134 3.0 8.0 0.00 0.00 0.00 51 1019.5
20260503131140 50 360 1.0 4.0 0.00 0.00 0.00 42 1010.3
20260503131007 47 130 2.0 5.0 0.00 0.00 0.00 61 1019.4
20260503130540 50 360 0.0 4.0 0.00 0.00 0.00 39 1010.4
20260503130504 46 122 1.0 5.0 0.00 0.00 0.00 60 1019.4
20260503110535 44 108 0.0 3.0 0.00 0.00 0.00 48 1010.0
20260503110503 38 136 0.0 2.0 0.00 0.00 0.00 76 1018.7
20260503090504 35 288 0.0 0.0 0.00 0.00 0.00 87 1018.3
20260503081539 45 240 0.0 2.0 0.00 0.00 0.00 45 1009.0
20260503081507 36 288 0.0 0.0 0.00 0.00 0.00 87 1018.1
20260503081122 45 240 0.0 2.0 0.00 0.00 0.00 42 1009.0
20260503081004 36 288 0.0 0.0 0.00 0.00 0.00 87 1018.1
20260503080519 45 240 0.0 2.0 0.00 0.00 0.00 42 1009.0
20260503080504 36 288 0.0 0.0 0.00 0.00 0.00 86 1018.1
20260503072520 45 172 0.0 3.0 0.00 0.00 0.00 43 1009.0
20260503072503 36 288 0.0 0.0 0.00 0.00 0.00 87 1018.0
20260503072018 45 172 0.0 4.0 0.00 0.00 0.00 43 1008.8
20260503072003 36 288 0.0 0.0 0.00 0.00 0.00 86 1018.0
20260503071531 45 128 0.0 4.0 0.00 0.00 0.00 44 1008.8
20260503071505 36 288 0.0 0.0 0.00 0.00 0.00 86 1018.0
20260503071115 46 195 0.0 1.0 0.00 0.00 0.00 44 1009.0
20260503071004 36 288 0.0 0.0 0.00 0.00 0.00 86 1018.1
20260503070516 46 196 0.0 1.0 0.00 0.00 0.00 44 1009.0
20260503070503 36 288 0.0 0.0 0.00 0.00 0.00 86 1018.1
20260503055005 48 204 0.0 4.0 0.00 0.00 0.00 39 1009.2
20260503055003 35 288 0.0 0.0 0.00 0.00 0.00 86 1018.3
20260503054521 48 214 0.0 4.0 0.00 0.00 0.00 36 1009.3
20260503054508 35 288 0.0 0.0 0.00 0.00 0.00 86 1018.4
20260503054006 48 24 0.0 3.0 0.00 0.00 0.00 37 1009.3
20260503053507 35 288 0.0 0.0 0.00 0.00 0.00 86 1018.4
20260503053504 48 82 1.0 3.0 0.00 0.00 0.00 36 1009.4
20260503053012 36 288 0.0 0.0 0.00 0.00 0.00 86 1018.4
20260503053003 48 49 0.0 2.0 0.00 0.00 0.00 37 1009.3
20260503052507 36 288 0.0 0.0 0.00 0.00 0.00 85 1018.4
20260503052503 49 49 0.0 2.0 0.00 0.00 0.00 37 1009.5
20260503052003 36 288 0.0 0.0 0.00 0.00 0.00 85 1018.4
20260503051504 36 288 0.0 0.0 0.00 0.00 0.00 85 1018.3
20260503051500 49 94 0.0 4.0 0.00 0.00 0.00 35 1009.7
20260503051100 49 113 0.0 5.0 0.00 0.00 0.00 36 1009.6
20260503051003 36 288 0.0 0.0 0.00 0.00 0.00 85 1018.4
20260503050600 49 113 0.0 5.0 0.00 0.00 0.00 35 1009.6
20260503050504 36 288 0.0 0.0 0.00 0.00 0.00 85 1018.4
20260503050007 36 288 0.0 0.0 0.00 0.00 0.00 84 1018.4
20260503045600 49 69 0.0 4.0 0.00 0.00 0.00 34 1009.7
20260503045503 36 288 0.0 0.0 0.00 0.00 0.00 84 1018.4
20260503045059 49 172 0.0 4.0 0.00 0.00 0.00 35 1009.7
20260503045007 36 288 0.0 0.0 0.00 0.00 0.00 84 1018.4
20260503044557 49 359 0.0 3.0 0.00 0.00 0.00 36 1009.8